Weather History for Greenwood, SC

Change the Weather History Date:

Tuesday, May 21, 2013

  Actual Average (KAND) Record (KAND)
Temperature  
Mean Temperature 76 °F -  
Max Temperature 88 °F 81 °F 95 °F (1962)
Min Temperature 64 °F 59 °F 43 °F (1954)
Cooling Degree Days 11    
Growing Degree Days 26 (Base 50)    
Moisture  
Dew Point 67 °F    
Average Humidity 82    
Maximum Humidity 100    
Minimum Humidity 49    
Precipitation  
Precipitation 0.01 in - - ()
Sea Level Pressure  
Sea Level Pressure 30.03 in    
Wind  
Wind Speed 3 mph (South)    
Max Wind Speed 13 mph    
Max Gust Speed 24 mph    
Visibility 6 miles    
Events Fog , Thunderstorm    
Averages and records for this station are not official NWS values.
T = Trace of Precipitation, MM = Missing Value Source: NWS Daily Summary

Daily Weather History Graph

Daily Weather History Graph

Search for Another Location

Airport:

Trip Planner

Search our weather history database for the weather conditions in past years. The results will help you decide how hot, cold, wet, or windy it might be!

Date:

Astronomy

May. 21, 2013 Rise Set
Actual Time 6:22 AM EDT 8:28 PM EDT
Civil Twilight 5:54 AM EDT 8:56 PM EDT
Nautical Twilight 5:20 AM EDT 9:30 PM EDT
Astronomical Twilight 4:43 AM EDT 10:08 PM EDT
Moon 4:49 PM EDT (5/21) 3:39 AM EDT (5/21)
Length of Visible Light 15h 02m
Length of Day
14h 05m
Waxing Gibbous, 84% of the Moon is Illuminated
May 21
Waxing Gibbous
May 25
Full
May 31
Last Quarter
Jun 8
New
Jun 16
First Quarter

Hourly Weather History & Observations

Time (EDT) Temp. Heat Index Dew Point Humidity Pressure Visibility Wind Dir Wind Speed Gust Speed Precip Events Conditions
12:56 AM 66.9 °F - 64.9 °F 93% 30.03 in 7.0 mi Calm Calm - N/A   Clear
1:56 AM 66.0 °F - 64.0 °F 93% 30.02 in 6.0 mi Calm Calm - 0.01 in   Clear
2:56 AM 64.9 °F - 64.0 °F 97% 30.02 in 5.0 mi Calm Calm - N/A   Clear
3:56 AM 66.0 °F - 64.0 °F 93% 30.02 in 3.0 mi Calm Calm - N/A   Clear
4:56 AM 66.0 °F - 64.9 °F 96% 30.02 in 4.0 mi SE 3.5 mph - N/A   Clear
5:18 AM 66.2 °F - 64.4 °F 94% 30.04 in 2.5 mi Calm Calm - N/A   Partly Cloudy
5:44 AM 66.2 °F - 66.2 °F 100% 30.05 in 1.0 mi Calm Calm - N/A   Mist
5:56 AM 66.0 °F - 64.9 °F 96% 30.04 in 2.0 mi SSW 3.5 mph - N/A   Mostly Cloudy
6:03 AM 66.2 °F - 66.2 °F 100% 30.05 in 0.8 mi SSW 3.5 mph - N/A   Mostly Cloudy
6:46 AM 68.0 °F - 66.2 °F 94% 30.05 in 0.2 mi SSW 4.6 mph - N/A Fog Fog
6:56 AM 68.0 °F - 68.0 °F 100% 30.03 in 0.2 mi SSW 3.5 mph - N/A Fog Fog
7:56 AM 69.1 °F - 69.1 °F 100% 30.04 in 0.2 mi SSW 4.6 mph - N/A Fog Fog
8:19 AM 69.8 °F - 69.8 °F 100% 30.07 in 0.5 mi South 3.5 mph - N/A Fog Fog
8:32 AM 69.8 °F - 69.8 °F 100% 30.07 in 1.5 mi South 4.6 mph - N/A   Overcast
8:48 AM 69.8 °F - 69.8 °F 100% 30.08 in 2.0 mi South 3.5 mph - N/A   Overcast
8:56 AM 70.0 °F - 69.1 °F 97% 30.06 in 2.5 mi South 3.5 mph - N/A   Overcast
9:03 AM 71.6 °F - 69.8 °F 94% 30.08 in 3.0 mi South 3.5 mph - N/A   Overcast
9:13 AM 71.6 °F - 69.8 °F 94% 30.08 in 4.0 mi Calm Calm - N/A   Overcast
9:33 AM 71.6 °F - 69.8 °F 94% 30.08 in 5.0 mi SE 3.5 mph - N/A   Overcast
9:56 AM 75.0 °F - 71.1 °F 87% 30.07 in 8.0 mi WSW 3.5 mph - N/A   Overcast
10:56 AM 78.1 °F - 70.0 °F 76% 30.07 in 10.0 mi West 4.6 mph - N/A   Scattered Clouds
11:56 AM 82.0 °F 85.5 °F 69.1 °F 65% 30.05 in 10.0 mi Calm Calm - N/A   Scattered Clouds
12:56 PM 84.0 °F 88.4 °F 70.0 °F 63% 30.04 in 10.0 mi SSE 4.6 mph - N/A   Clear
1:56 PM 86.0 °F 90.1 °F 69.1 °F 57% 30.01 in 10.0 mi SSW 6.9 mph - N/A   Clear
2:56 PM 87.1 °F 90.6 °F 68.0 °F 53% 29.99 in 10.0 mi WNW 9.2 mph - N/A   Partly Cloudy
3:56 PM 84.9 °F 87.6 °F 66.9 °F 55% 29.96 in 10.0 mi South 3.5 mph - N/A   Scattered Clouds
4:56 PM 88.0 °F 90.7 °F 66.9 °F 49% 29.96 in 10.0 mi Calm Calm - N/A   Mostly Cloudy
5:04 PM 87.8 °F 90.4 °F 66.2 °F 49% 29.98 in 10.0 mi Variable 3.5 mph - N/A Thunderstorm Scattered Clouds
5:25 PM 78.8 °F - 64.4 °F 61% 30.00 in 10.0 mi ESE 12.7 mph 24.2 mph N/A   Scattered Clouds
5:47 PM 78.8 °F - 64.4 °F 61% 29.99 in 10.0 mi SE 10.4 mph - N/A Thunderstorm Clear
5:56 PM 79.0 °F - 63.0 °F 58% 29.97 in 10.0 mi SE 8.1 mph - N/A   Clear
6:56 PM 78.1 °F - 64.0 °F 62% 29.98 in 10.0 mi SSE 8.1 mph - N/A   Clear
7:56 PM 75.0 °F - 64.0 °F 69% 29.96 in 10.0 mi South 5.8 mph - N/A   Clear
8:56 PM 72.0 °F - 63.0 °F 73% 29.98 in 10.0 mi South 6.9 mph - N/A   Clear
9:56 PM 69.1 °F - 64.0 °F 84% 29.99 in 10.0 mi SE 4.6 mph - N/A   Clear
10:56 PM 66.9 °F - 64.0 °F 90% 30.01 in 10.0 mi South 4.6 mph - N/A   Clear
11:56 PM 66.0 °F - 63.0 °F 90% 30.02 in 10.0 mi Calm Calm - N/A   Clear